sat.trackr.live / text

‹ back to catalog

SCS-01 D

NORAD 63985 · 2025-100D

PAYLOAD ACTIVE UNKNOWN

§ Identity

Operator
Country
PRC
Launch date
2025-05-14
Launch site
JSC
Launch vehicle
Mass (kg)
RCS (m²)

External: N2YO · Heavens-Above · Gunter

§ Orbital elements

Epoch: 2026-09-21T19:47:09.856896Z

Period
94.38 min
Inclination
97.3593°
Eccentricity
0.0004870
Mean motion
15.25668111 rev/d
Perigee alt
485.4 km
Apogee alt
492.1 km
Semi-major
6,866.9 km
B*
4.4784e-4
RAAN
339.8255°
Arg perigee
314.3565°
Mean anomaly
45.7274°
Rev number
7,560

§ Raw data

SCS-01 D1 63985U 25100D   26264.82441964  .00011339  00000+0  44784-3 0  99932 63985  97.3593 339.8255 0004870 314.3565  45.7274 15.25668111 75603

JSON: /api/v1/satellites/63985 · /tle

For live sub-satellite position, see the globe view (requires WebGL).

§ Visibility from observer

Set your observer location to see the next 7 days of passes ≥ 10°. The values pass through the URL so the page stays shareable.

No JS? Fill the form by hand. The geolocation button needs JavaScript.